Location: Salamanca
(40.9670°N, 5.6500°W)
Time: 21:54:00
(UTC+02:00)

Daily predictions for brighter satellites

Satellite Brightness Start Highest point End
(mag) Time Altitude Azimuth Time Altitude Azimuth Time Altitude Azimuth
SJ-11-01 4.4 22:14:35 10° SSE 22:19:09 59° ENE 22:23:46 10° N
Resurs 01 Rocket 4.4 22:16:49 10° SW 22:19:42 17° W 22:22:35 10° NW
GEOS 3 Rocket 3.8 22:15:54 10° SE 22:21:08 70° NE 22:26:20 10° NNW
Envisat 3.7 22:17:33 10° SE 22:22:13 38° ENE 22:26:54 10° N
CZ-4 DEB 4.0 22:24:19 10° S 22:27:23 41° W 22:30:29 10° NNW
FENGYUN 3A 4.2 22:23:21 10° S 22:28:39 60° W 22:34:00 10° NNW
Milstar 3 Cent rocket 4.4 22:23:23 10° WSW 22:28:58 17° SW 22:33:00 10° S
Cosmos 1603 4.2 22:27:11 10° SSW 22:32:45 67° WNW 22:38:20 10° NNE
GRACE-1 3.8 22:36:26 10° N 22:39:19 71° E 22:42:08 10° S
GRACE-2 3.8 22:36:53 10° N 22:39:45 71° E 22:42:35 10° S
Cosmos 1943 Rocket 3.6 22:36:46 10° N 22:41:13 24° NE 22:45:40 10° ESE
Tsikada Rocket 4.1 22:37:12 10° S 22:43:37 88° W 22:50:01 10° N
Cosmos 1602 Rocket 4.3 22:39:38 10° SSW 22:44:02 59° W 22:48:27 10° N
Atlas Centaur 2 3.5 22:39:22 10° WSW 22:45:35 36° S 22:52:19 12° ESE
Cosmos 1825 Rocket 3.9 22:43:16 10° SSE 22:47:31 46° E 22:51:45 10° NNE
Cosmos 1515 3.7 22:44:49 10° S 22:48:39 68° E 22:52:29 10° NNE
ALOS 4.0 22:46:18 10° SSW 22:50:25 31° W 22:54:34 10° NNW
Cosmos 1943 3.2 22:46:33 10° SSW 22:52:12 75° ESE 22:57:54 10° NNE
Cosmos 1992 Rocket 4.0 22:49:34 10° NNW 22:54:49 88° W 22:59:45 12° SSE
Meteor 2-12 Rocket 4.4 22:48:44 10° N 22:54:51 84° E 23:00:54 10° S
Cosmos 1812 Rocket 3.9 22:51:00 10° NNW 22:55:22 66° W 22:59:45 10° S
SL-27 R/B 4.1 22:55:52 15° ESE 22:56:13 15° E 22:58:13 10° ENE
Cosmos 1238 4.3 22:53:24 10° SSW 22:56:26 75° W 22:59:30 10° N
SeaSat 1 3.0 22:53:26 14° SE 22:57:23 47° ENE 23:02:07 10° NNW
Lacrosse 4 Rocket 1.2 22:54:49 10° SSW 22:58:49 70° ESE 23:02:54 10° NNE
ATLAS 3B R/B 2.9 22:52:18 10° SSW 22:59:59 75° ESE 23:07:30 10° NE
CZ-2C R/B 3.4 23:03:15 10° SW 23:04:38 14° W 23:06:01 10° WNW
H-2A R/B 3.1 23:03:00 10° S 23:07:05 44° W 23:11:19 10° NNW
USA 81 4.0 23:05:15 10° N 23:10:33 76° E 23:15:07 14° S
Cosmos 1634 Rocket 3.9 23:07:24 10° N 23:13:36 80° E 23:19:01 14° S
CZ-4B R/B 3.6 23:09:06 10° NNE 23:14:11 60° ESE 23:19:21 10° S
ARGOS 3.6 23:13:29 19° SE 23:17:05 48° ENE 23:22:17 10° N
CZ-4 R/B 4.3 23:12:29 10° NNE 23:17:17 44° E 23:20:36 19° SSE
Cosmos 489 Rocket 4.5 23:13:33 10° SSW 23:19:53 78° ESE 23:26:16 10° NNE
USA 234 3.8 23:15:10 13° ESE 23:20:55 52° NNE 23:27:14 10° NW
ISS -0.5 23:18:33 10° WNW 23:21:08 21° NNW 23:23:44 10° NNE
Cosmos 1190 Rocket 4.2 23:16:36 10° SSW 23:21:54 75° WNW 23:27:14 10° NNE
MetOp-B 4.1 23:20:14 17° SSE 23:24:29 86° WSW 23:29:53 10° NNW
Terra 3.3 23:22:24 17° ESE 23:24:35 23° ENE 23:28:20 10° NNE
SPOT 5 3.1 23:23:19 14° S 23:26:54 56° W 23:31:10 10° NNW
Cosmos 1953 3.4 23:25:09 10° NNE 23:28:40 29° ENE 23:29:48 25° ESE
Cosmos 1939 Rocket 4.5 23:25:29 10° SSW 23:29:11 32° W 23:32:55 10° NNW
Cosmos 1140 Rocket 4.1 23:26:42 23° SSE 23:29:14 37° ESE 23:34:00 10° NE
Meteor 1-21 4.3 23:25:07 14° S 23:30:04 67° E 23:35:51 10° NNE
Cosmos 2279 Rocket 4.1 23:26:12 10° N 23:32:25 65° E 23:36:25 23° SSE
USA 245 4.0 23:28:45 21° SSE 23:32:43 83° ENE 23:37:30 10° N
Cosmos 1932 4.4 23:27:24 10° SSW 23:33:28 66° ESE 23:39:39 10° NE
H-2A R/B 3.0 23:31:48 22° ESE 23:34:07 32° ENE 23:38:37 10° N
Cosmos 2369 Rocket 2.8 23:29:36 10° NNW 23:35:06 53° WSW 23:39:09 18° S
Cosmos-2242 3.5 23:31:28 10° N 23:35:43 45° ENE 23:37:22 31° SE
Cosmos 1953 Rocket 3.8 23:31:50 11° SSW 23:36:04 69° W 23:40:30 10° N
Cosmos 1346 Rocket 3.3 23:33:11 10° SSW 23:36:56 59° WNW 23:40:51 10° N
Cosmos 676 Rocket 4.0 23:34:02 10° SSW 23:39:22 87° WNW 23:44:43 10° NNE
Cosmos 1842 3.3 23:39:34 34° SSE 23:41:02 61° E 23:44:55 10° NNE
PSLV R/B 3.2 23:38:04 10° W 23:41:37 78° S 23:42:40 42° ESE
SPOT 1/Viking Rocket 3.6 23:40:00 24° S 23:43:13 80° WSW 23:48:23 10° NNW
SL-8 R/B 4.4 23:39:11 10° WNW 23:43:55 52° NNE 23:47:12 19° E
USA 238 DEB 3.7 23:40:00 10° SSW 23:47:00 66° ESE 23:54:00 10° NE
USA 238 3.7 23:40:06 10° SSW 23:47:06 66° ESE 23:54:05 10° NE
CZ-4C R/B 3.5 23:48:17 19° E 23:48:17 19° E 23:51:37 10° ENE
NOAA 11 4.1 23:45:37 28° SSE 23:48:37 83° ENE 23:54:04 10° NNW
SL-23 DEB 4.4 23:46:27 10° WSW 23:52:54 76° NW 23:56:42 10° NE
